Location: Ripley
(48.3812°N, 115.4473°W)
Time: 19:55:12
(UTC+00:00)

RS-15 - Pass Details

Date: 02 July 2022
Orbit: 1881 x 2163 km, 64.8° (Epoch: 19 August)

Event Time Altitude Azimuth Distance (km) Brightness Sun altitude
Rises 07:38:48 0° 322° (NW) 5,700 11.3 -18.6°
Reaches altitude 10° 07:42:19 10° 319° (NW) 4,692 10.7 -18.6°
Maximum altitude 07:54:20 62° 244° (WSW) 2,345 8.2 -18.6°
Enters shadow 08:02:29 23° 173° (S) 3,598 8.8 -18.5°
